Time,TemperatureF,DewpointF,PressureIn,WindDirection,WindDirectionDegrees,WindSpeedMPH,WindSpeedGustMPH,Humidity,HourlyPrecipIn,Conditions,Clouds,dailyrainin,SoftwareType,DateUTC
2013-03-27 00:02:00,34.0,25.0,30.32,South,191,0.0,-999.0,70,-99.99,,,-99.99,,2013-03-27 05:02:00,
2013-03-27 00:12:00,34.0,25.0,30.32,South,191,0.0,-999.0,70,-99.99,,,-99.99,,2013-03-27 05:12:00,
2013-03-27 00:23:00,34.0,25.0,30.32,WSW,239,0.0,-999.0,70,-99.99,,,-99.99,,2013-03-27 05:23:00,
2013-03-27 00:32:00,34.0,25.0,30.32,WSW,242,0.0,-999.0,70,-99.99,,,-99.99,,2013-03-27 05:32:00,
2013-03-27 00:42:00,34.0,25.0,30.32,WSW,242,0.0,-999.0,70,-99.99,,,-99.99,,2013-03-27 05:42:00,
2013-03-27 00:52:00,33.0,24.0,30.32,North,355,0.0,-999.0,70,-99.99,,,-99.99,,2013-03-27 05:52:00,
2013-03-27 01:02:00,33.0,25.0,30.32,North,355,0.0,-999.0,71,-99.99,,,-99.99,,2013-03-27 06:02:00,
2013-03-27 01:12:00,33.0,25.0,30.32,North,355,0.0,-999.0,71,-99.99,,,-99.99,,2013-03-27 06:12:00,
2013-03-27 01:22:00,32.0,24.0,30.32,North,355,0.0,-999.0,72,-99.99,,,-99.99,,2013-03-27 06:22:00,
2013-03-27 01:32:00,32.0,24.0,30.32,North,355,0.0,-999.0,73,-99.99,,,-99.99,,2013-03-27 06:32:00,
2013-03-27 01:42:00,32.0,24.0,30.32,North,355,0.0,-999.0,73,-99.99,,,-99.99,,2013-03-27 06:42:00,
2013-03-27 01:53:00,31.0,24.0,30.32,North,355,0.0,-999.0,74,-99.99,,,-99.99,,2013-03-27 06:53:00,
2013-03-27 02:02:00,31.0,24.0,30.33,North,350,0.0,-999.0,74,-99.99,,,-99.99,,2013-03-27 07:02:00,
2013-03-27 02:12:00,31.0,24.0,30.33,North,350,0.0,-999.0,74,-99.99,,,-99.99,,2013-03-27 07:12:00,
2013-03-27 02:22:00,31.0,24.0,30.32,NE,51,0.0,-999.0,76,-99.99,,,-99.99,,2013-03-27 07:22:00,
2013-03-27 02:32:00,32.0,25.0,30.32,NE,45,0.0,-999.0,76,-99.99,,,-99.99,,2013-03-27 07:32:00,
2013-03-27 02:42:00,32.0,25.0,30.32,NE,45,0.0,-999.0,76,-99.99,,,-99.99,,2013-03-27 07:42:00,
2013-03-27 02:43:00,31.0,24.0,30.32,NE,43,0.0,-999.0,75,-99.99,,,-99.99,,2013-03-27 07:43:00,
2013-03-27 02:53:00,32.0,25.0,30.32,NE,44,0.0,-999.0,75,-99.99,,,-99.99,,2013-03-27 07:53:00,
2013-03-27 03:02:00,31.0,24.0,30.32,NE,43,0.0,-999.0,75,-99.99,,,-99.99,,2013-03-27 08:02:00,
2013-03-27 03:12:00,31.0,24.0,30.32,NE,43,0.0,-999.0,75,-99.99,,,-99.99,,2013-03-27 08:12:00,
2013-03-27 03:22:00,31.0,24.0,30.32,NE,43,0.0,-999.0,75,-99.99,,,-99.99,,2013-03-27 08:22:00,
2013-03-27 03:32:00,31.0,24.0,30.32,NE,43,0.0,-999.0,75,-99.99,,,-99.99,,2013-03-27 08:32:00,
2013-03-27 07:52:00,31.0,26.0,30.36,ENE,65,0.0,-999.0,80,-99.99,,,-99.99,,2013-03-27 12:52:00,
2013-03-27 08:02:00,32.0,26.0,30.36,ENE,62,0.0,-999.0,79,-99.99,,,-99.99,,2013-03-27 13:02:00,
2013-03-27 08:12:00,32.0,26.0,30.36,ENE,62,0.0,-999.0,79,-99.99,,,-99.99,,2013-03-27 13:12:00,
2013-03-27 08:22:00,35.0,28.0,30.37,ENE,63,0.0,-999.0,74,-99.99,,,-99.99,,2013-03-27 13:22:00,
2013-03-27 08:32:00,36.0,28.0,30.37,ENE,63,0.0,-999.0,71,-99.99,,,-99.99,,2013-03-27 13:32:00,
2013-03-27 08:42:00,36.0,28.0,30.37,ENE,63,0.0,-999.0,71,-99.99,,,-99.99,,2013-03-27 13:42:00,
2013-03-27 08:53:00,37.0,27.0,30.37,East,96,1.0,-999.0,66,-99.99,,,-99.99,,2013-03-27 13:53:00,
2013-03-27 09:02:00,37.0,26.0,30.38,ESE,110,1.0,-999.0,64,-99.99,,,-99.99,,2013-03-27 14:02:00,
2013-03-27 09:12:00,37.0,26.0,30.38,ESE,110,1.0,-999.0,64,-99.99,,,-99.99,,2013-03-27 14:12:00,
2013-03-27 09:22:00,38.0,27.0,30.38,East,100,1.0,-999.0,63,-99.99,,,-99.99,,2013-03-27 14:22:00,
2013-03-27 09:32:00,39.0,27.0,30.38,East,92,1.0,-999.0,61,-99.99,,,-99.99,,2013-03-27 14:32:00,
2013-03-27 09:42:00,39.0,27.0,30.38,East,92,1.0,-999.0,61,-99.99,,,-99.99,,2013-03-27 14:42:00,
2013-03-27 09:52:00,40.0,27.0,30.39,East,100,1.0,-999.0,59,-99.99,,,-99.99,,2013-03-27 14:52:00,
2013-03-27 10:02:00,41.0,27.0,30.39,ESE,114,1.0,-999.0,58,-99.99,,,-99.99,,2013-03-27 15:02:00,
2013-03-27 10:12:00,41.0,27.0,30.39,ESE,114,1.0,-999.0,58,-99.99,,,-99.99,,2013-03-27 15:12:00,
2013-03-27 10:22:00,41.0,27.0,30.39,ESE,110,1.0,-999.0,57,-99.99,,,-99.99,,2013-03-27 15:22:00,
2013-03-27 10:33:00,42.0,27.0,30.38,SE,135,1.0,-999.0,56,-99.99,,,-99.99,,2013-03-27 15:33:00,
2013-03-27 10:42:00,42.0,27.0,30.38,SE,135,1.0,-999.0,56,-99.99,,,-99.99,,2013-03-27 15:42:00,
2013-03-27 10:52:00,44.0,28.0,30.38,South,172,1.0,-999.0,52,-99.99,,,-99.99,,2013-03-27 15:52:00,
2013-03-27 11:02:00,44.0,27.0,30.38,North,360,1.0,-999.0,51,-99.99,,,-99.99,,2013-03-27 16:02:00,
2013-03-27 11:13:00,44.0,27.0,30.38,North,360,1.0,-999.0,51,-99.99,,,-99.99,,2013-03-27 16:13:00,
2013-03-27 11:22:00,45.0,28.0,30.39,SE,126,1.0,-999.0,51,-99.99,,,-99.99,,2013-03-27 16:22:00,
2013-03-27 11:32:00,46.0,28.0,30.39,SW,218,1.0,-999.0,49,-99.99,,,-99.99,,2013-03-27 16:32:00,
2013-03-27 11:42:00,46.0,28.0,30.39,SW,218,1.0,-999.0,49,-99.99,,,-99.99,,2013-03-27 16:42:00,
2013-03-27 11:52:00,46.0,27.0,30.39,SW,233,1.0,-999.0,48,-99.99,,,-99.99,,2013-03-27 16:52:00,
2013-03-27 12:02:00,46.0,27.0,30.39,SW,233,1.0,-999.0,48,-99.99,,,-99.99,,2013-03-27 17:02:00,
2013-03-27 12:12:00,46.0,27.0,30.39,SW,233,1.0,-999.0,48,-99.99,,,-99.99,,2013-03-27 17:12:00,
2013-03-27 12:22:00,46.0,27.0,30.39,SW,233,1.0,-999.0,48,-99.99,,,-99.99,,2013-03-27 17:22:00,
2013-03-27 12:32:00,46.0,27.0,30.39,SW,233,1.0,-999.0,48,-99.99,,,-99.99,,2013-03-27 17:32:00,